User: anonymous   Login
Location: Unspecified
(0.0000°N, 0.0000°E)
Time: 13:48:26
(UTC+00:00)
Language:

S-56A Canister/Altair - Orbit

View from above orbital plane
View from above orbital plane
View from above satellite
View from above satellite

Ground track
Ground track

The orbit data is extracted from the following two-line orbital elements,

1    82U 61004B   19200.84904643 +.00000056 +00000-0 +71424-4 0  9994
2    82 038.8668 353.6402 1175656 273.4771 073.2452 12.26043440766868
Epoch (UTC): 19 July 2019 20:22:37
Eccentricity: 0.1175656
inclination: 38.8668°
perigee height: 632 km
apogee height: 2500 km
right ascension of ascending node: 353.6402°
argument of perigee: 273.4771°
revolutions per day: 12.26043440
mean anomaly at epoch: 73.2452°
orbit number at epoch: 76686

The dashed part of the orbit path shows where the satellite is in the earth's shadow,  

DLR